Wind_Speed
40 40 40 40 41 40 40 40 39 39 39 38 37 36 36 36 36 37 38 39 40 41 41 43 44 45 45 46 48 49 51 52 53 55 56 58 60 62 63 65 66 67 67 66 65 64 63 64 65 66 67 67 65 62 58 54 50 47 43 41 40 39 38 38 38 38 38 37 37 37 36 36 36 37 38 38 38 40 42 42 42 43 43 44 45 46 48 49
38 38 38 39 39 38 38 38 39 39 39 38 37 37 36 36 36 37 38 40 40 41 43 44 45 46 47 48 50 51 53 54 55 57 59 61 62 64 65 66 66 65 64 64 63 63 64 65 66 66 64 61 56 51 46 43 40 38 37 35 35 36 36 36 36 37 38 38 38 37 36 37 38 39 40 40 41 42 44 45 45 46 47 48 49 51 52 53
38 37 38 38 38 37 37 37 38 37 37 36 36 36 36 36 37 38 40 41 42 43 44 45 46 48 49 50 51 53 54 56 58 60 61 63 64 65 65 64 63 63 62 62 63 64 65 65 63 59 54 48 44 40 37 36 35 34 34 34 34 35 35 36 37 38 39 40 41 40 39 40 42 43 45 45 45 46 48 50 50 51 51 52 53 55 56 57
39 38 38 37 36 36 36 36 36 35 34 34 34 35 36 38 39 40 41 42 43 44 45 47 48 49 50 52 53 55 56 58 60 62 63 64 64 64 63 62 61 61 62 63 64 64 61 57 51 46 41 37 35 34 33 33 33 33 34 34 35 36 37 38 39 40 42 43 44 43 43 44 45 47 48 50 50 51 51 54 56 57 57 57 58 58 59 60
39 38 37 36 35 34 34 34 34 34 34 35 36 37 39 40 41 42 43 43 44 45 47 48 49 51 52 53 55 57 59 61 63 63 64 63 62 61 60 60 61 62 63 62 60 55 49 44 39 36 34 32 32 32 32 33 34 35 36 37 38 39 40 41 42 43 44 46 47 46 47 48 49 50 52 53 55 56 57 58 59 61 62 63 63 63 64 65
38 37 35 34 33 33 34 34 34 34 35 37 38 40 41 42 43 43 43 45 46 47 48 49 51 52 54 56 58 60 62 63 63 62 61 60 60 59 60 61 61 61 58 54 48 42 38 35 32 31 31 31 31 32 33 34 36 37 39 40 41 42 43 44 45 46 47 49 50 50 51 52 53 54 55 57 58 60 62 63 64 65 66 67 68 69 69 70
36 35 34 33 32 33 34 33 34 35 37 38 39 40 41 42 43 43 45 46 47 48 49 51 52 54 56 58 60 62 62 62 61 59 59 58 58 59 60 60 57 52 46 41 37 34 32 31 30 30 31 32 33 34 36 37 38 40 41 43 44 46 47 48 49 50 51 53 54 55 56 57 58 59 60 61 63 64 66 67 68 69 70 71 72 73 74 75
35 35 34 33 33 33 34 34 36 37 39 39 40 41 41 42 43 44 46 47 48 50 51 53 55 57 59 60 61 61 60 58 57 57 57 58 58 58 55 51 45 40 36 33 31 30 30 30 31 32 33 34 36 37 39 40 42 43 45 46 48 49 51 52 53 54 55 56 58 59 60 62 63 64 65 66 68 69 71 72 73 74 75 76 77 78 79 80
34 33 33 33 33 34 35 36 38 38 38 39 39 40 41 42 43 44 46 48 50 51 53 55 57 59 59 59 58 57 56 55 55 56 56 56 53 49 44 39 35 32 31 30 30 30 31 32 33 34 36 37 39 40 42 43 45 47 48 50 52 54 55 57 58 59 60 61 63 64 65 67 69 70 71 72 73 75 76 77 78 79 80 81 82 83 84 85
33 32 33 33 34 36 37 37 37 37 37 38 39 40 41 42 44 46 47 50 52 54 55 57 58 58 57 55 54 53 54 54 54 53 51 46 42 37 34 32 30 29 29 30 31 32 33 34 36 38 39 41 42 44 46 47 49 51 53 54 56 58 59 61 63 64 65 66 68 69 70 72 74 75 76 77 78 80 81 82 83 84 85 86 87 88 89 90
33 33 34 35 36 37 37 36 36 37 38 39 40 41 42 44 46 48 50 52 53 55 56 56 55 54 52 51 51 52 52 51 48 44 39 35 32 30 29 29 29 29 30 31 33 34 36 38 40 41 43 45 46 48 50 52 54 56 57 59 61 62 63 65 67 69 70 71 72 73 74 77 78 79 80 81 83 84 85 86 87 88 89 90 91 92 93 94
33 34 35 36 36 36 36 36 36 37 39 40 41 42 44 46 48 50 51 52 53 53 53 52 50 49 49 50 50 49 46 42 37 33 30 28 28 28 28 29 30 31 33 34 36 38 39 41 43 45 47 49 51 52 54 56 58 60 62 63 65 66 68 69 71 72 74 75 77 77 77 80 82 83 84 85 86 87 88 89 90 91 92 93 94 95 96 96
33 34 35 35 35 35 35 36 37 38 39 41 42 44 46 47 49 50 50 50 50 49 48 47 47 48 48 47 44 40 35 31 28 27 26 26 27 28 30 31 32 34 36 38 40 41 43 45 47 49 51 53 55 57 58 60 62 64 66 67 68 70 71 73 74 75 76 77 79 80 79 81 83 85 85 86 88 89 90 91 92 93 94 95 96 96 97 97
33 33 33 33 33 34 35 36 37 39 40 42 43 44 45 46 47 47 47 46 45 45 45 46 46 45 41 37 33 30 27 25 25 25 26 27 29 31 32 34 35 37 39 41 44 46 47 49 51 53 55 57 59 61 63 64 66 68 69 70 71 72 73 75 76 77 77 78 80 81 81 81 84 85 87 88 89 90 91 92 93 94 95 96 96 97 97 98
30 30 31 31 33 34 35 36 38 39 40 41 42 43 43 43 43 43 43 43 43 44 44 42 39 35 30 27 25 23 23 24 25 27 28 30 32 34 36 37 39 42 44 46 48 50 52 54 56 57 59 61 62 64 65 67 68 69 70 71 72 73 74 76 77 77 78 79 80 82 83 83 85 86 88 89 90 91 92 92 93 93 94 95 95 95 96 96
27 28 30 31 32 34 35 36 37 38 38 39 39 40 40 40 40 40 41 41 41 40 37 32 28 24 22 21 21 22 24 25 27 29 31 33 35 37 39 41 43 46 48 50 51 53 55 57 59 60 62 63 64 65 66 67 69 70 70 71 72 73 75 76 77 78 78 79 79 81 83 84 85 86 88 89 90 90 91 92 92 93 93 94 95 95 96 97
26 27 28 30 31 32 33 33 34 35 35 36 36 36 37 37 38 39 38 36 33 29 25 22 20 19 19 20 22 24 26 28 30 32 35 37 39 41 43 45 47 49 51 53 54 56 57 59 60 61 62 63 64 65 66 67 69 70 71 72 73 73 74 75 76 77 77 77 78 79 81 83 85 86 88 89 90 91 92 93 93 94 95 95 96 96 97 98
23 24 25 27 28 29 30 31 31 32 32 33 34 35 36 36 35 33 29 26 22 19 18 17 18 19 21 23 25 27 30 32 34 36 39 41 43 45 47 49 51 52 54 55 56 57 59 60 61 62 63 64 65 66 67 68 69 69 70 70 71 72 73 73 74 75 77 78 78 80 82 84 86 87 89 90 91 92 93 95 95 96 97 98 99 99 100 100
21 22 23 25 26 26 27 28 29 30 31 32 33 33 31 29 26 22 19 16 15 15 16 18 19 21 24 26 29 31 33 36 38 40 42 44 46 48 49 51 52 54 55 56 57 58 59 60 61 62 63 64 66 67 67 68 68 68 68 68 69 70 72 74 74 76 78 80 81 82 84 87 88 90 91 93 94 95 96 97 98 99 101 102 103 104 104 104
20 21 22 23 24 25 26 27 28 29 29 28 26 23 20 17 15 14 13 13 14 16 18 20 23 25 27 30 32 35 37 39 41 43 45 46 48 49 51 52 53 54 56 57 58 59 60 60 61 62 63 64 65 65 66 66 67 67 68 69 69 71 73 76 77 78 80 82 84 85 87 89 91 93 95 97 98 98 100 101 102 103 105 106 107 107 108 108
19 20 21 22 23 24 25 25 24 23 21 18 15 13 11 10 10 11 12 14 16 19 21 24 26 28 31 34 36 38 40 42 43 45 46 48 49 50 52 53 54 55 56 57 58 59 60 60 61 62 62 63 64 64 65 66 67 68 69 70 71 72 74 77 80 82 83 85 87 89 89 91 93 95 97 99 100 101 102 103 105 106 107 108 109 110 111 111
19 20 21 21 21 20 18 17 15 13 11 9 8 8 8 9 10 13 15 17 20 22 24 27 29 32 34 36 38 40 42 43 45 46 47 48 49 51 52 53 54 55 56 57 58 59 59 60 61 61 62 62 63 64 65 66 68 69 70 72 74 75 76 79 82 84 86 88 89 91 91 91 93 95 96 98 99 100 101 103 104 106 107 108 110 110 111 112
17 17 16 14 13 12 10 9 8 7 6 5 6 7 9 11 13 16 18 20 23 25 28 30 32 34 36 38 40 41 43 44 45 46 47 49 50 51 53 54 55 56 57 57 58 58 58 59 60 61 62 63 64 65 66 68 69 71 73 74 76 78 80 80 82 85 87 88 89 90 90 90 90 92 93 95 95 96 98 99 101 103 104 106 107 108 109 109
12 11 10 10 10 9 8 7 5 4 4 5 7 9 12 14 16 19 21 24 26 28 30 32 34 36 38 39 41 42 43 44 45 47 49 50 51 52 53 54 54 55 55 56 56 57 58 59 60 61 62 63 65 67 68 70 72 73 75 77 78 79 81 82 82 83 85 86 87 87 88 88 88 88 89 91 92 93 94 96 97 99 100 102 104 105 106 107
12 12 11 10 9 7 5 3 2 3 5 8 10 13 15 17 19 22 24 26 28 30 32 34 35 37 38 40 41 42 44 45 47 48 50 50 51 52 52 53 53 53 54 54 55 56 58 59 60 62 63 65 67 69 70 72 73 74 76 77 78 78 79 80 80 80 81 83 84 85 87 86 86 87 87 88 89 90 92 94 95 97 99 100 102 103 104 105
14 13 11 9 6 4 2 1 4 6 9 11 13 16 18 20 22 23 25 28 29 31 33 34 36 37 39 40 42 44 45 47 48 49 49 50 50 50 50 51 52 52 53 54 55 57 59 60 62 63 65 67 68 69 70 71 72 72 73 74 74 75 75 76 77 78 79 81 82 83 85 85 85 87 88 88 90 90 91 93 95 97 99 101 101 102 103 104
12 10 8 5 3 2 2 5 7 9 12 14 16 18 20 22 23 25 26 28 30 31 32 34 36 38 40 42 44 45 46 47 48 48 48 48 48 48 49 50 51 53 54 55 56 58 59 60 62 63 64 65 66 66 67 68 68 69 70 71 72 73 74 75 76 77 78 80 81 82 84 84 85 88 89 90 91 91 91 93 95 98 100 102 102 102 103 103
9 7 5 3 2 4 5 8 10 12 14 16 17 19 21 23 24 26 27 28 30 32 33 36 38 40 42 43 44 45 45 45 45 46 46 46 46 47 48 50 51 53 54 54 55 57 58 59 60 61 62 63 63 64 65 65 66 67 68 69 71 72 74 74 75 75 76 77 79 81 84 85 84 87 90 90 90 91 92 94 96 99 100 100 100 100 100 100
6 4 3 3 4 6 8 10 12 14 16 17 19 21 22 23 25 26 27 28 31 33 36 38 40 41 42 42 43 43 44 44 45 45 46 47 47 47 48 49 50 51 53 53 54 55 56 57 58 59 60 61 62 62 63 64 65 66 67 69 71 72 72 72 72 72 73 74 76 79 82 85 85 85 88 90 91 91 93 95 97 99 99 98 98 98 99 100
4 3 4 5 7 8 10 12 14 15 17 19 20 21 22 24 25 26 28 30 33 35 37 38 39 39 40 40 41 41 41 42 43 44 44 45 45 46 46 46 46 48 50 52 53 54 55 56 57 58 59 60 61 62 63 65 66 66 67 68 68 69 70 70 70 70 70 70 72 75 78 83 85 84 85 89 91 92 93 95 97 99 99 99 99 99 100 100
4 5 6 7 9 10 12 13 15 16 18 19 20 22 23 25 26 28 30 32 34 35 36 36 37 37 38 38 38 39 39 40 41 41 41 41 42 43 44 45 46 47 49 51 52 53 55 56 57 58 59 60 61 62 62 63 64 65 66 66 66 66 67 67 68 67 67 67 69 73 74 78 83 83 83 85 87 89 92 94 97 99 99 98 97 98 98 98
6 7 8 9 10 12 13 14 16 17 19 20 22 24 25 26 28 30 31 32 33 33 34 35 35 36 36 36 37 37 38 39 39 40 42 43 44 46 47 48 49 50 51 52 53 53 54 55 56 57 58 59 59 59 60 60 61 62 63 63 63 62 62 62 63 62 62 63 66 69 70 73 77 78 80 81 82 84 88 91 94 96 96 94 94 93 93 93
7 8 9 11 12 13 14 15 17 19 21 22 24 25 26 27 29 29 30 30 31 31 32 33 34 34 34 35 36 36 37 38 40 42 44 46 47 48 49 49 50 51 51 52 53 53 52 53 53 53 54 54 55 57 58 58 58 59 60 61 61 62 62 62 63 62 60 58 62 67 70 72 73 72 75 78 79 81 85 88 92 93 92 91 90 91 91 91
9 10 11 12 13 14 16 17 19 21 22 24 24 25 26 26 27 27 27 28 29 30 31 32 32 33 33 34 36 37 39 41 43 45 46 47 47 48 49 49 50 50 51 51 51 51 51 50 51 51 51 51 52 53 55 55 55 57 59 61 63 65 65 66 68 69 67 62 63 68 72 77 79 76 77 80 80 82 84 87 89 89 89 89 89 91 91 90
10 11 12 13 14 16 17 19 20 22 23 24 24 24 24 24 24 25 26 27 28 29 30 30 31 33 34 36 38 41 43 44 46 46 46 47 47 47 48 48 49 49 50 50 50 50 49 48 48 48 48 48 49 51 54 56 58 59 62 63 65 67 69 70 71 73 73 70 69 72 75 81 85 82 82 83 81 82 84 87 89 88 88 89 88 88 88 87
12 13 14 15 16 17 19 21 22 23 23 23 22 22 22 22 23 24 25 26 27 27 29 30 33 35 37 40 42 44 45 45 45 45 45 46 46 47 47 47 47 47 47 46 46 47 47 47 47 47 48 49 51 54 58 61 63 65 67 67 68 70 72 73 72 72 73 72 72 75 77 81 85 84 84 85 84 84 85 88 90 88 87 86 86 86 84 83
14 14 15 16 18 19 21 22 22 21 21 20 20 20 21 22 23 24 24 25 26 28 31 34 36 39 41 43 43 43 43 43 44 44 45 46 46 46 45 45 44 44 44 44 45 47 48 50 52 52 53 55 57 59 61 63 65 68 70 72 72 73 75 77 77 75 74 73 74 76 79 84 88 86 86 88 89 89 88 88 88 87 85 84 83 83 81 79
14 15 16 18 20 21 21 21 20 19 19 19 19 21 22 22 22 23 24 27 30 32 35 38 40 41 41 41 42 42 43 43 44 45 45 45 44 44 44 44 45 46 47 49 51 52 53 55 57 58 58 60 62 64 65 66 67 69 70 73 75 76 76 78 80 81 80 78 77 76 79 87 92 91 91 90 91 92 90 87 86 85 84 82 81 81 79 77
15 17 19 21 21 21 20 19 19 18 18 19 20 21 21 21 23 25 28 31 33 35 37 38 39 39 40 41 42 43 44 45 45 45 45 46 46 47 48 49 51 52 54 55 56 57 58 59 61 63 64 65 66 67 68 69 70 71 72 73 75 77 78 79 80 82 83 83 83 80 79 87 93 93 93 93 92 93 92 87 85 84 83 82 81 80 79 77
18 20 21 21 21 20 19 18 18 18 19 19 19 20 21 23 26 29 31 33 34 36 37 37 38 39 41 42 43 44 45 46 47 48 49 51 52 53 54 56 57 58 59 60 61 61 62 63 64 65 67 68 68 69 71 72 73 73 74 75 77 78 79 81 81 82 84 86 88 86 83 87 93 92 92 93 92 93 94 90 86 83 83 83 82 81 80 78
21 22 21 20 19 19 18 17 17 18 19 19 20 22 24 27 30 31 31 32 34 36 37 38 40 41 42 43 45 46 48 49 51 52 54 55 56 57 58 59 60 61 62 63 64 65 65 66 66 66 66 67 68 69 70 72 72 74 76 77 79 80 81 82 83 84 86 88 91 90 87 90 96 96 95 95 93 93 94 92 87 83 82 82 81 79 79 79
22 21 20 18 18 18 17 17 18 18 19 20 23 25 28 29 29 30 31 34 36 38 39 40 41 43 44 45 47 49 50 52 54 55 57 58 59 60 60 61 62 63 64 65 66 67 68 68 68 67 67 68 68 69 70 71 72 73 75 78 80 82 84 86 87 87 88 90 91 90 87 90 97 100 100 98 95 94 95 94 90 85 82 82 80 78 77 77
21 20 18 18 18 17 17 17 18 19 21 24 26 28 28 28 29 31 34 36 38 39 41 42 44 45 47 48 49 51 52 54 55 56 58 59 60 61 62 63 64 64 65 66 67 69 69 70 70 69 69 70 70 70 71 73 74 75 77 80 83 85 87 89 91 90 90 92 94 90 86 87 93 96 98 99 97 95 95 94 92 86 82 80 78 77 76 75
20 18 18 18 18 17 18 19 20 22 25 27 28 27 27 27 30 34 37 38 39 41 43 44 46 47 48 49 51 52 53 55 56 57 58 59 60 62 63 64 65 66 67 68 69 70 71 73 73 73 73 72 72 73 74 76 78 80 82 84 86 88 90 91 93 92 92 94 97 96 89 86 89 92 95 98 97 95 93 92 91 88 84 80 76 75 74 73
18 18 18 18 18 19 19 20 22 25 27 27 26 26 27 30 33 36 38 39 41 43 44 46 47 48 49 50 51 53 54 55 56 58 59 60 61 62 64 65 66 67 68 69 70 72 73 75 77 79 79 79 79 80 81 82 83 85 86 87 88 90 92 95 96 95 94 93 97 100 95 88 88 90 91 93 94 94 92 90 89 86 84 81 77 73 71 71
18 19 19 19 20 20 21 23 25 27 26 25 25 26 29 33 36 38 39 41 43 44 45 46 47 48 50 51 52 53 54 56 57 59 60 61 63 64 66 67 68 69 70 72 72 74 75 76 79 81 83 84 84 85 86 86 86 87 88 89 90 91 94 98 99 97 96 95 94 99 101 97 93 92 91 90 90 92 91 89 86 83 81 77 74 72 71 70
19 19 20 20 20 21 23 25 26 25 23 23 25 28 32 35 37 39 41 42 44 45 46 47 48 49 51 52 53 55 56 57 58 60 61 63 64 66 67 69 70 71 72 74 74 75 77 78 79 82 84 85 86 86 87 88 88 89 90 90 91 92 95 99 100 99 99 98 94 94 99 100 97 96 95 92 90 90 89 87 85 83 80 77 74 72 71 71
19 20 21 21 21 22 24 25 24 22 22 24 27 31 35 37 39 40 42 43 44 45 46 48 49 50 52 53 54 56 57 59 60 62 63 65 66 68 69 70 71 73 74 75 77 77 78 80 80 82 85 86 87 88 88 89 89 90 91 92 93 94 95 98 102 102 102 103 100 97 98 101 100 99 99 97 93 91 89 88 87 85 81 79 76 73 71 70
20 21 21 21 22 23 24 23 22 22 23 25 29 33 36 38 39 41 42 43 44 46 47 49 50 52 53 54 56 57 58 60 62 63 65 66 68 69 71 72 73 75 76 78 79 80 81 82 82 84 85 87 89 89 89 89 91 92 93 94 95 95 96 99 103 103 103 104 105 104 102 102 102 102 101 100 97 94 90 88 87 86 82 78 75 72 70 67
20 21 21 22 23 23 22 21 20 22 24 27 31 35 37 38 40 41 42 43 45 47 48 50 51 53 54 55 57 58 60 61 63 64 66 68 70 71 73 74 76 77 79 80 82 83 84 85 85 86 88 89 90 90 91 92 93 94 95 96 96 97 99 102 105 104 102 102 103 105 104 102 102 101 101 101 99 96 91 86 83 82 79 75 72 69 67 65
20 21 22 23 23 22 20 19 20 23 26 30 34 36 37 39 40 41 42 44 46 47 49 51 52 54 55 56 58 59 61 62 64 66 68 70 72 74 76 77 79 81 82 84 85 86 87 88 88 89 90 92 93 93 94 94 95 96 96 97 98 100 101 104 107 108 106 104 102 102 103 103 102 101 98 97 97 94 91 85 80 77 75 74 71 67 65 63
20 21 23 23 21 19 18 19 21 25 29 32 34 36 38 39 39 40 42 44 46 48 50 52 53 55 56 57 58 60 62 64 66 68 70 72 74 76 78 80 82 84 85 87 88 89 90 91 92 92 92 94 95 96 97 97 97 97 98 100 101 102 102 105 108 109 109 109 107 106 105 105 103 100 96 93 91 90 89 86 81 76 73 71 70 67 64 62
Wind_Direction
212 215 218 222 224 225 227 230 233 236 239 241 243 247 251 254 257 260 262 264 266 269 272 275 277 279 281 283 284 286 287 288 289 290 291 292 293 294 295 296 297 297 296 296 295 294 293 293 293 293 293 293 292 291 290 288 287 287 286 286 286 286 285 285 284 285 285 284 284 283 283 284 283 281 280 280 280 280 279 278 277 276 275 273 272 270 269 268
213 215 218 222 225 226 229 231 234 236 238 241 244 247 251 255 259 262 265 267 270 273 275 277 279 281 282 284 286 287 288 289 290 291 292 293 295 295 296 296 296 295 295 294 294 293 293 293 293 294 293 293 292 290 289 288 288 288 288 288 288 287 287 287 287 287 287 287 287 287 288 288 286 284 283 282 281 280 279 279 277 275 274 273 272 271 269 269
216 217 221 223 225 227 230 232 234 237 239 243 246 249 254 258 262 265 268 270 273 275 278 279 281 282 284 286 287 288 289 291 292 293 294 295 295 295 295 294 294 293 293 293 293 293 294 294 294 293 293 292 291 291 291 290 291 291 290 290 289 289 289 289 290 290 291 291 291 291 292 290 288 287 286 285 283 282 280 280 278 275 273 272 271 270 270 270
219 220 222 224 226 228 231 234 237 240 243 247 251 255 258 262 265 268 270 273 275 277 279 281 282 284 286 287 289 290 291 292 293 294 294 295 294 294 293 292 292 292 293 293 293 294 294 293 293 292 291 291 291 292 292 292 292 292 292 292 291 292 292 292 293 292 292 292 291 292 291 289 287 286 285 285 284 282 280 279 278 277 276 274 273 272 271 270
220 222 223 225 227 230 233 237 240 244 248 252 256 259 262 265 267 269 272 274 277 279 280 282 283 286 287 289 291 292 292 293 293 293 293 293 292 292 292 292 292 293 293 294 293 293 293 292 291 291 292 292 292 292 292 293 294 294 294 294 294 294 293 293 292 291 290 289 289 289 287 285 284 284 283 283 282 281 279 277 277 277 277 277 276 275 274 273
219 222 224 227 229 232 237 240 244 248 251 255 258 260 263 265 267 270 273 276 278 280 281 283 285 288 289 291 291 291 292 292 292 292 291 291 291 292 292 293 293 293 293 293 292 291 291 291 291 291 292 293 293 294 294 295 295 295 295 294 294 293 291 290 289 289 288 287 287 286 285 284 283 282 282 281 280 280 279 278 278 277 277 277 276 275 275 274
219 223 226 228 231 235 239 243 247 250 253 256 259 261 264 266 269 272 275 277 279 281 283 285 287 289 290 290 290 291 291 290 290 290 290 291 292 292 293 293 293 292 291 290 289 289 289 290 291 292 293 294 295 295 295 295 294 293 293 292 291 290 289 288 287 286 286 285 286 285 285 284 283 282 281 280 279 279 278 278 278 277 276 276 275 275 274 274
219 223 226 229 233 238 242 246 249 252 255 257 260 263 265 269 272 274 277 279 281 283 285 287 288 288 289 289 289 289 289 289 289 290 291 292 292 292 292 291 290 289 288 288 288 289 290 291 292 293 294 294 295 294 294 293 292 291 290 289 288 288 287 287 287 287 286 286 286 286 285 285 284 282 281 280 279 279 278 278 277 277 276 276 275 275 275 275
220 223 227 231 235 240 244 247 250 253 256 259 262 265 268 272 274 276 279 281 283 284 286 286 287 287 288 288 288 287 288 289 290 291 292 291 291 290 289 288 287 288 288 289 290 290 292 293 294 294 294 293 293 292 291 290 290 289 288 288 288 288 288 288 289 289 288 288 287 286 285 284 283 282 281 281 280 279 279 278 278 278 278 277 277 276 276 275
221 225 229 234 237 241 244 248 251 255 258 261 265 268 271 274 276 278 280 282 283 284 285 285 286 286 286 286 287 288 289 290 291 291 290 289 288 288 287 287 288 289 290 291 292 293 294 294 293 293 292 291 291 290 290 290 289 289 289 289 289 289 290 290 290 289 288 287 286 285 284 283 282 282 281 281 280 280 279 279 278 278 277 277 277 276 276 276
222 227 232 236 239 242 245 249 253 257 261 264 267 271 273 276 277 279 280 281 282 283 284 284 284 285 285 286 288 289 289 289 289 288 287 287 287 288 288 289 290 291 292 293 294 294 294 293 292 292 292 291 291 291 291 290 290 290 290 290 290 290 289 289 288 287 286 285 284 284 283 283 282 282 281 280 280 279 279 278 277 277 276 276 276 275 275 275
223 228 232 236 240 243 247 251 255 259 263 266 269 272 274 276 277 279 280 281 281 282 282 283 283 285 286 287 287 287 287 286 286 286 287 288 288 289 291 292 294 294 295 294 294 293 293 293 293 293 293 293 293 292 292 291 290 290 289 289 289 289 288 287 286 285 285 284 284 284 283 283 283 282 281 281 280 280 279 279 278 277 277 276 276 275 275 275
223 228 232 236 241 245 249 253 257 261 264 267 269 271 273 275 277 278 279 279 280 280 281 282 284 285 285 285 285 285 284 285 286 287 288 289 290 293 295 296 296 296 295 294 294 294 294 294 294 294 293 293 292 292 291 290 290 289 288 288 287 287 286 285 285 284 284 284 284 284 283 283 283 283 282 282 281 281 280 280 279 279 279 278 278 277 276 276
223 228 233 238 243 247 251 255 259 262 264 267 269 272 273 275 276 276 277 278 279 280 281 282 283 283 283 283 283 284 285 287 288 289 290 292 294 296 297 297 297 296 295 295 295 295 295 295 294 294 293 292 291 291 290 290 289 288 288 288 288 287 287 286 286 286 286 286 286 285 285 284 284 283 283 282 282 281 281 281 281 281 280 280 280 279 279 278
224 229 235 240 244 249 253 256 260 262 265 268 269 271 272 273 274 275 276 277 279 280 281 281 281 281 282 283 285 287 289 290 291 292 295 296 297 297 298 298 297 297 297 296 296 296 295 295 294 293 292 291 291 290 290 289 289 289 289 289 290 289 289 289 288 288 288 288 288 287 287 286 285 285 284 284 284 284 284 284 283 283 283 283 282 282 282 281
225 231 236 241 246 250 253 257 260 263 265 266 268 269 270 271 273 274 276 277 278 279 279 278 279 281 284 287 288 290 292 294 296 297 298 298 298 298 298 298 297 297 296 296 295 295 294 293 292 291 291 291 290 290 290 290 290 290 290 290 290 290 290 290 289 289 289 289 289 289 289 288 287 287 286 286 286 286 286 286 286 285 285 284 284 284 283 282
226 232 237 241 246 250 253 256 259 261 262 264 266 268 269 271 273 274 275 276 276 276 277 279 281 285 288 290 292 294 295 297 298 298 299 299 298 298 298 297 296 295 295 294 293 293 292 291 291 291 291 291 291 291 291 291 291 291 291 291 290 290 290 290 290 290 290 290 290 290 290 289 289 289 289 289 289 289 289 288 288 287 287 286 286 285 284 283
227 232 237 241 245 248 251 254 257 259 261 264 266 268 269 271 272 273 272 272 273 276 280 284 288 292 294 296 297 299 299 298 299 299 299 299 299 298 297 296 295 294 294 293 293 292 292 292 292 292 292 292 292 291 291 291 291 291 291 291 292 292 292 292 292 292 292 291 291 290 290 290 290 290 291 291 291 291 291 291 291 291 291 290 289 288 287 287
227 232 236 240 244 247 250 254 257 259 262 264 266 268 269 269 268 268 268 271 276 282 288 292 296 298 299 300 300 300 299 299 299 298 298 298 297 296 295 294 294 293 293 293 293 293 293 293 293 293 292 292 291 291 291 292 292 292 292 292 292 293 293 293 293 292 292 293 292 292 293 293 293 293 294 294 294 294 294 293 293 293 292 292 291 290 289 289
227 232 236 240 244 248 251 254 257 259 262 263 264 263 263 262 263 266 272 279 284 290 296 299 301 301 300 299 299 298 298 298 297 297 297 296 295 294 294 294 294 294 294 294 294 294 294 293 292 292 292 292 292 292 293 293 293 293 294 294 294 294 295 295 295 295 295 295 295 295 295 295 295 295 295 295 295 294 294 294 293 293 292 291 291 290 290 290
230 234 238 242 246 249 252 254 255 256 255 253 251 251 254 261 269 277 285 292 295 298 300 301 300 300 299 298 298 298 297 297 296 296 295 295 295 295 295 295 295 295 294 294 294 293 292 292 292 292 293 293 293 294 294 294 295 295 296 297 297 297 297 297 297 297 297 296 296 296 295 294 294 294 293 293 293 293 293 293 292 291 291 291 291 290 290 290
233 237 240 243 245 246 246 244 242 238 235 235 239 249 262 276 288 296 299 300 300 300 300 299 299 298 297 297 297 296 296 296 296 296 296 296 296 296 295 295 295 294 293 293 292 292 293 293 294 294 295 295 295 296 296 297 298 298 299 299 299 298 298 297 296 296 296 295 294 294 294 293 292 292 292 292 293 293 293 292 291 291 291 290 290 290 290 291
230 231 232 230 227 222 216 210 207 209 217 235 256 274 287 296 302 303 302 302 301 300 299 298 298 297 297 297 296 296 296 296 297 297 297 296 296 295 294 294 293 293 293 294 295 295 296 296 296 297 297 298 299 299 299 300 300 301 300 300 299 298 297 296 295 294 294 294 294 294 294 293 293 293 293 293 293 293 292 291 291 291 291 291 291 291 291 292
204 199 192 185 179 176 175 177 185 209 249 276 290 299 303 305 304 303 302 302 301 300 299 298 298 298 298 298 298 298 297 297 296 296 295 295 294 294 294 294 294 296 297 298 299 299 299 299 300 301 301 302 302 302 302 302 302 301 300 299 298 298 297 297 296 296 296 296 296 296 296 296 296 296 295 295 294 293 293 292 292 292 292 292 292 292 292 292
159 155 153 150 150 151 153 163 219 284 300 304 305 307 306 306 304 303 302 301 300 300 300 300 300 300 299 299 298 297 296 295 295 294 295 295 295 296 297 298 300 301 301 302 302 303 303 304 304 304 304 304 303 303 303 302 301 300 300 299 299 299 299 299 299 299 299 299 299 299 299 298 298 297 296 296 295 295 294 294 294 294 293 293 292 293 293 293
136 135 134 133 134 132 133 311 311 310 310 308 308 308 306 305 303 303 302 301 301 301 300 300 300 299 299 298 296 296 295 295 296 296 297 299 301 302 303 304 305 305 306 307 307 307 307 307 307 306 305 304 303 303 302 301 301 301 301 301 302 302 302 302 302 302 302 302 301 301 300 301 301 300 299 298 297 297 297 296 296 295 294 294 294 295 295 295
124 122 120 116 104 55 337 319 315 312 310 309 308 306 304 304 304 304 303 301 300 300 300 300 299 298 298 297 297 296 297 298 300 302 304 306 308 308 309 310 311 311 311 311 311 309 308 307 306 305 304 303 303 303 303 303 304 304 304 304 304 305 305 305 305 305 304 304 303 303 302 303 303 301 300 300 299 299 298 297 296 295 295 295 295 295 295 294
112 107 96 70 21 341 323 317 314 312 310 308 306 306 306 306 305 303 302 301 300 301 300 300 299 298 298 298 299 300 302 305 307 309 311 312 313 314 315 315 315 314 313 311 310 309 308 307 306 306 305 305 306 306 307 307 307 307 307 307 307 307 307 307 307 307 306 305 304 304 303 303 302 301 300 300 300 299 298 296 295 294 294 295 295 296 296 296
97 82 49 6 341 330 323 318 314 312 311 310 309 308 306 305 304 304 304 303 302 301 300 299 299 300 301 302 305 308 311 314 316 317 318 319 319 319 319 318 316 314 313 312 311 311 310 310 310 309 309 310 310 310 310 310 310 310 310 310 309 309 308 307 307 305 304 303 302 302 302 303 301 300 299 299 299 298 297 296 296 296 296 298 299 300 300 300
71 38 4 343 334 328 323 319 317 315 313 312 310 307 306 307 308 307 306 303 301 300 300 301 303 305 307 310 313 316 318 319 320 321 321 321 321 320 319 318 317 316 315 315 315 315 315 315 314 314 314 314 315 315 315 314 314 313 311 310 309 308 307 306 305 304 303 303 302 301 302 301 299 299 299 299 299 299 299 299 299 300 301 302 303 303 303 301
29 4 349 340 333 327 323 321 318 315 313 312 311 311 312 313 310 306 301 300 301 303 304 306 309 311 314 317 319 320 321 321 322 321 321 321 321 321 322 322 322 322 321 321 320 320 320 320 319 319 319 319 319 318 317 315 313 312 310 309 308 307 306 305 304 303 303 303 302 301 301 299 298 299 300 300 301 302 302 302 301 302 303 304 304 303 302 301
8 356 346 338 333 329 326 321 318 318 319 319 319 317 315 310 304 300 300 302 306 309 310 313 316 318 321 322 323 324 324 325 326 327 328 328 329 329 329 328 328 327 326 325 325 325 324 324 323 322 322 321 320 318 316 314 313 311 310 309 308 306 305 303 301 301 302 304 307 306 304 301 300 302 302 302 302 302 301 301 301 302 304 305 304 303 303 303
1 352 345 339 335 330 327 325 326 326 325 323 319 314 309 303 300 303 307 311 314 316 318 321 323 324 326 327 328 329 330 331 333 334 335 335 334 333 332 331 330 330 329 329 328 327 327 326 324 324 324 322 321 318 316 315 314 312 312 311 310 309 308 307 307 307 308 311 314 313 311 307 304 304 304 303 304 304 304 304 304 305 306 307 307 307 307 306
358 352 346 341 335 332 333 334 331 327 323 320 315 310 307 306 308 314 318 321 323 325 326 327 328 330 332 334 335 337 338 339 340 340 339 338 337 336 335 334 334 333 332 332 331 330 330 329 328 327 326 324 321 318 316 316 316 316 317 318 318 318 319 319 319 318 318 320 319 316 315 313 311 310 310 310 310 309 308 307 307 309 311 312 312 312 310 309
358 353 348 343 340 339 338 333 327 323 321 319 316 314 314 317 323 327 329 331 332 331 331 333 336 339 341 343 344 345 346 345 345 343 342 341 340 340 339 339 338 337 337 336 335 335 334 332 330 329 327 325 324 322 323 324 325 326 326 327 327 327 327 327 327 326 325 326 325 321 321 320 317 317 316 315 314 313 312 313 313 315 315 315 315 313 312 311
1 356 350 346 343 339 334 328 325 324 324 323 323 325 329 334 338 338 338 337 335 337 339 343 347 349 350 351 351 351 350 349 348 347 347 347 347 347 346 345 344 342 342 340 339 338 336 334 333 333 332 332 332 333 334 335 335 335 334 333 333 332 332 331 330 329 327 328 328 326 325 322 319 318 318 318 318 318 318 318 318 318 318 317 316 315 314 313
3 357 350 345 341 337 332 330 330 331 331 333 336 340 345 347 347 344 342 342 344 349 351 353 355 356 356 356 356 355 354 353 354 354 354 354 354 354 352 350 348 346 345 343 343 342 341 340 340 342 342 341 341 341 341 342 341 340 339 337 336 336 334 332 331 330 330 330 329 328 328 324 321 322 323 323 322 322 322 321 320 320 320 319 318 317 316 315
0 353 347 343 341 338 335 337 340 341 344 348 351 354 355 354 351 350 352 355 358 360 0 1 2 1 1 1 360 360 0 1 1 1 0 360 358 357 355 353 352 350 350 350 349 349 349 349 348 348 349 348 347 346 345 345 344 343 342 340 338 337 336 334 333 333 334 333 329 330 332 328 325 326 327 325 324 324 323 323 323 323 322 322 321 319 318 316
355 350 346 345 344 342 345 351 352 354 358 1 2 1 0 0 1 3 5 6 6 6 7 7 7 6 6 6 6 6 5 5 5 4 3 2 1 360 359 358 357 356 356 355 355 355 355 354 353 352 352 352 351 349 348 347 346 344 343 341 340 339 337 336 336 336 335 333 331 332 336 332 328 328 327 326 326 326 325 326 326 326 325 325 324 322 321 318
353 350 349 350 350 353 0 4 2 5 9 9 8 8 10 12 13 12 11 10 12 13 14 13 12 12 11 10 10 9 8 7 6 5 4 4 3 3 2 1 0 360 359 358 358 357 357 358 357 355 354 353 352 351 349 348 348 346 344 343 341 340 338 337 337 338 337 335 333 335 338 334 329 328 328 328 329 328 327 328 329 329 329 328 326 325 323 320
354 353 355 357 1 8 13 12 10 13 15 15 16 18 20 20 18 17 16 16 19 20 19 18 17 16 14 12 11 10 8 7 6 6 5 5 4 4 3 3 2 1 0 359 359 358 358 359 358 357 355 354 353 352 351 349 349 348 346 344 342 341 340 339 339 340 340 338 336 336 339 336 332 331 331 331 331 330 328 329 331 332 331 329 328 326 324 322
357 360 4 9 16 21 20 17 17 20 22 24 26 26 25 23 21 21 22 24 24 23 21 20 18 16 15 13 11 10 8 7 7 6 5 5 4 4 3 3 2 2 1 0 360 359 358 358 359 357 355 355 354 353 351 350 349 349 347 345 344 343 343 341 341 342 342 340 337 337 339 339 336 335 333 332 332 331 330 331 332 333 333 331 329 328 326 323
4 10 16 22 27 27 24 24 26 29 31 31 31 29 27 25 25 26 27 27 25 23 21 20 18 16 14 12 11 10 8 7 6 6 5 5 4 3 3 3 2 2 2 1 1 359 358 357 358 357 356 355 354 353 351 350 349 349 348 347 347 346 345 343 342 343 344 341 338 337 339 341 338 336 334 333 333 333 332 332 333 334 334 332 331 329 327 324
12 20 27 30 32 30 29 31 33 35 35 33 32 30 29 28 29 30 28 26 24 22 20 19 17 15 13 11 10 9 8 7 6 6 5 5 4 3 3 3 3 3 2 2 1 360 358 357 356 357 356 355 354 353 353 352 351 351 351 350 349 348 346 344 343 344 344 343 340 338 339 341 339 337 336 334 334 334 334 334 334 334 334 334 332 330 328 325
21 29 34 34 33 34 36 38 38 38 36 35 33 31 31 31 31 30 27 25 23 21 19 17 15 13 12 11 10 9 8 7 6 6 5 5 4 3 3 3 4 4 3 3 2 0 359 358 356 356 356 355 355 355 354 354 354 353 353 352 351 349 347 345 344 344 344 344 343 340 339 340 340 339 338 336 335 335 335 335 335 335 335 334 333 331 330 327
29 35 36 35 35 39 41 41 40 39 37 36 34 33 33 32 30 29 26 24 22 20 18 16 14 12 11 11 10 9 8 8 7 7 6 5 5 4 4 4 4 4 3 3 3 1 0 360 358 356 356 356 357 356 355 355 355 354 354 353 351 350 349 346 344 344 344 344 344 342 340 341 342 341 340 339 338 337 337 336 335 336 335 334 334 333 332 330
36 39 38 37 40 43 43 42 42 41 37 36 35 34 34 32 29 28 26 24 22 19 17 15 13 12 12 11 10 10 9 9 8 8 7 6 6 5 5 5 5 5 4 3 3 2 1 1 360 358 357 357 357 357 356 356 355 355 354 353 352 351 350 347 343 345 346 344 344 343 341 341 342 342 342 342 341 339 337 336 336 337 337 336 336 336 336 334
40 42 41 41 44 45 44 44 43 40 37 36 35 35 34 32 29 28 26 23 21 19 17 16 14 13 13 12 12 11 10 10 9 9 8 7 7 7 7 7 6 6 5 4 4 4 3 2 1 360 358 358 357 358 358 356 355 355 354 353 353 352 351 348 344 345 347 345 344 345 344 343 343 344 344 343 342 340 339 339 339 339 338 338 338 339 339 337
44 47 46 46 46 46 45 44 42 40 37 36 36 35 33 31 30 28 26 23 22 20 18 17 16 15 15 14 13 12 11 11 11 10 10 9 9 9 8 8 8 7 7 6 5 5 4 3 3 1 360 359 359 358 358 357 356 355 354 354 353 352 352 349 346 346 347 347 346 346 346 345 344 345 345 344 343 342 342 342 341 340 339 339 339 340 339 337
49 52 51 48 45 45 46 44 41 40 37 36 36 35 34 32 31 29 27 24 23 21 20 19 18 17 16 15 14 14 13 13 12 12 12 11 11 11 10 10 9 8 8 7 6 6 5 4 4 3 1 360 359 358 358 357 356 356 355 354 353 353 353 350 347 346 347 347 347 347 346 346 345 345 345 345 344 343 342 342 342 340 338 339 339 339 338 336
55 55 52 48 44 44 46 43 40 40 38 36 36 35 34 33 31 29 27 25 24 23 22 20 19 18 17 16 15 15 14 14 14 14 13 13 12 12 12 11 10 10 9 8 7 7 6 5 4 4 2 1 360 359 359 358 357 356 355 354 353 353 354 352 348 347 348 348 348 347 346 347 346 345 346 346 345 343 341 342 342 341 341 341 339 339 339 338
58 55 51 48 45 44 45 42 40 40 38 37 37 36 35 34 32 30 28 26 25 24 23 21 20 19 18 17 17 17 16 15 15 14 14 14 13 13 12 12 11 10 10 9 8 7 7 6 5 5 4 2 0 360 359 358 357 356 355 354 354 353 354 354 349 348 349 349 348 348 348 347 346 344 345 346 346 343 342 343 343 343 344 343 340 339 340 340
Height
10714 10717 10719 10721 10723 10725 10728 10729 10731 10732 10733 10734 10735 10736 10735 10735 10735 10735 10734 10733 10732 10732 10731 10729 10728 10727 10726 10724 10722 10721 10719 10717 10715 10713 10710 10708 10705 10702 10700 10697 10694 10690 10687 10683 10680 10677 10673 10669 10666 10663 10660 10656 10653 10650 10646 10642 10639 10636 10634 10631 10628 10626 10623 10621 10618 10616 10614 10613 10612 10612 10611 10611 10609 10606 10604 10603 10601 10597 10595 10593 10592 10591 10589 10586 10583 10581 10578 10575
10712 10715 10717 10719 10722 10725 10727 10728 10729 10731 10732 10733 10733 10733 10733 10733 10733 10732 10731 10730 10729 10728 10727 10726 10725 10723 10722 10720 10719 10717 10714 10713 10711 10708 10705 10703 10700 10698 10695 10691 10688 10684 10680 10677 10673 10670 10667 10663 10660 10656 10653 10649 10646 10643 10640 10637 10634 10632 10630 10627 10624 10622 10619 10617 10615 10612 10610 10609 10608 10609 10609 10607 10604 10601 10599 10598 10596 10594 10590 10588 10587 10585 10583 10580 10577 10575 10572 10569
10710 10713 10715 10718 10721 10723 10725 10726 10728 10729 10730 10731 10731 10731 10731 10730 10730 10729 10728 10727 10726 10725 10724 10723 10721 10719 10718 10717 10715 10712 10710 10708 10705 10703 10700 10698 10695 10692 10689 10686 10682 10678 10674 10671 10667 10664 10661 10657 10654 10650 10647 10644 10641 10638 10635 10632 10630 10628 10626 10623 10621 10618 10616 10614 10612 10609 10607 10605 10604 10605 10605 10602 10599 10596 10594 10592 10591 10590 10586 10581 10580 10579 10577 10574 10572 10569 10567 10564
10709 10711 10714 10717 10719 10721 10723 10725 10726 10727 10728 10728 10728 10728 10728 10727 10726 10725 10724 10724 10723 10722 10721 10719 10717 10716 10714 10712 10710 10708 10705 10703 10700 10698 10695 10693 10690 10686 10683 10679 10675 10672 10669 10665 10662 10658 10655 10652 10648 10646 10643 10640 10637 10634 10632 10629 10627 10625 10622 10620 10617 10615 10613 10611 10608 10606 10604 10601 10600 10600 10600 10597 10594 10592 10589 10586 10584 10583 10581 10576 10572 10570 10568 10567 10565 10564 10562 10560
10708 10710 10713 10715 10718 10720 10722 10723 10724 10725 10725 10725 10725 10725 10724 10724 10723 10722 10722 10721 10720 10719 10717 10716 10714 10712 10710 10708 10706 10703 10701 10698 10695 10693 10690 10687 10684 10680 10676 10673 10670 10667 10664 10660 10656 10653 10650 10647 10644 10642 10639 10637 10634 10631 10629 10626 10624 10621 10619 10616 10614 10612 10609 10607 10605 10602 10600 10597 10595 10595 10594 10592 10589 10587 10584 10581 10578 10575 10573 10570 10567 10563 10560 10559 10557 10556 10554 10552
10707 10710 10712 10714 10717 10719 10720 10720 10721 10722 10722 10722 10722 10721 10721 10720 10720 10720 10719 10718 10717 10715 10714 10712 10710 10708 10706 10704 10702 10699 10696 10694 10690 10687 10684 10681 10677 10674 10671 10668 10665 10662 10658 10655 10651 10648 10645 10643 10641 10638 10636 10633 10631 10628 10626 10623 10620 10618 10615 10612 10610 10607 10605 10602 10600 10598 10596 10592 10591 10590 10588 10586 10584 10582 10579 10576 10572 10568 10565 10562 10560 10557 10554 10551 10549 10547 10545 10542
10706 10709 10711 10713 10715 10716 10717 10718 10719 10719 10719 10719 10719 10718 10718 10718 10718 10717 10716 10715 10713 10712 10710 10708 10706 10704 10702 10700 10697 10694 10691 10688 10685 10682 10679 10676 10672 10669 10666 10663 10660 10657 10654 10650 10647 10645 10642 10640 10637 10635 10633 10630 10628 10625 10622 10620 10617 10614 10611 10608 10605 10603 10600 10597 10595 10594 10591 10588 10585 10584 10582 10580 10578 10575 10572 10569 10566 10562 10558 10555 10552 10549 10546 10543 10540 10537 10535 10532
10705 10707 10710 10712 10713 10714 10715 10715 10715 10715 10716 10716 10716 10716 10716 10715 10715 10714 10713 10711 10710 10708 10706 10704 10702 10700 10698 10695 10692 10689 10686 10683 10680 10677 10674 10671 10668 10665 10662 10658 10655 10652 10650 10647 10644 10642 10639 10637 10634 10632 10629 10627 10624 10621 10619 10616 10613 10610 10607 10604 10600 10598 10594 10592 10590 10588 10587 10584 10581 10579 10576 10573 10570 10567 10564 10561 10558 10554 10550 10547 10543 10540 10537 10534 10531 10529 10526 10523
10703 10706 10708 10710 10711 10711 10712 10712 10712 10713 10713 10714 10714 10713 10713 10713 10712 10711 10709 10708 10706 10704 10702 10701 10698 10696 10693 10690 10687 10684 10681 10678 10676 10673 10670 10667 10663 10660 10657 10654 10651 10649 10646 10644 10641 10639 10636 10634 10631 10629 10626 10623 10621 10618 10615 10612 10608 10606 10603 10599 10596 10592 10589 10586 10584 10582 10581 10578 10575 10572 10569 10564 10560 10557 10555 10551 10548 10544 10541 10538 10535 10531 10528 10525 10522 10519 10516 10513
10702 10704 10706 10707 10708 10708 10709 10709 10710 10711 10711 10711 10711 10711 10711 10710 10709 10707 10706 10704 10702 10701 10699 10696 10694 10691 10688 10685 10682 10680 10677 10674 10671 10668 10665 10662 10659 10656 10653 10651 10649 10646 10644 10641 10638 10636 10633 10630 10628 10625 10622 10619 10617 10614 10611 10607 10604 10601 10598 10594 10591 10587 10584 10581 10578 10575 10573 10570 10566 10563 10560 10555 10550 10548 10545 10541 10537 10534 10531 10528 10525 10521 10518 10515 10511 10508 10505 10502
10700 10702 10703 10704 10705 10705 10706 10707 10708 10709 10709 10709 10709 10708 10708 10707 10705 10704 10702 10700 10699 10696 10694 10692 10689 10686 10684 10681 10678 10676 10673 10670 10667 10664 10661 10658 10656 10653 10651 10648 10646 10644 10641 10638 10635 10632 10630 10627 10624 10621 10618 10615 10613 10610 10606 10603 10599 10595 10592 10589 10585 10582 10579 10575 10571 10567 10563 10560 10557 10554 10551 10544 10540 10539 10535 10531 10526 10522 10520 10516 10513 10510 10507 10503 10500 10496 10493 10490
10698 10699 10700 10701 10702 10703 10705 10705 10706 10706 10706 10706 10706 10705 10704 10703 10702 10700 10698 10696 10694 10692 10690 10687 10685 10682 10680 10677 10674 10671 10669 10666 10663 10660 10658 10655 10653 10651 10648 10646 10643 10640 10637 10634 10631 10629 10626 10623 10620 10617 10614 10611 10608 10605 10601 10598 10594 10590 10586 10582 10579 10575 10572 10568 10563 10559 10554 10551 10546 10544 10543 10535 10528 10527 10523 10519 10515 10510 10507 10504 10500 10497 10494 10491 10487 10484 10481 10478
10695 10696 10697 10699 10701 10702 10703 10703 10704 10704 10704 10704 10703 10702 10701 10700 10698 10696 10694 10692 10690 10688 10686 10683 10681 10678 10676 10673 10670 10668 10665 10663 10660 10658 10655 10653 10651 10648 10646 10643 10640 10637 10634 10631 10628 10625 10623 10620 10616 10613 10609 10606 10602 10599 10595 10591 10588 10583 10579 10576 10572 10568 10563 10558 10554 10550 10546 10543 10537 10534 10533 10527 10519 10515 10511 10507 10502 10497 10494 10490 10487 10484 10480 10477 10473 10470 10468 10465
10693 10695 10696 10698 10699 10700 10701 10701 10701 10701 10701 10700 10699 10698 10697 10696 10694 10692 10690 10688 10686 10684 10682 10680 10677 10675 10672 10670 10667 10665 10663 10660 10658 10656 10653 10650 10648 10645 10643 10640 10637 10634 10631 10628 10624 10621 10618 10615 10612 10608 10605 10601 10597 10593 10589 10585 10580 10576 10572 10568 10563 10559 10554 10549 10544 10540 10537 10533 10528 10522 10520 10517 10510 10504 10499 10495 10490 10485 10482 10478 10474 10471 10467 10463 10459 10456 10454 10451
10692 10694 10695 10696 10697 10698 10698 10699 10698 10698 10698 10697 10696 10695 10693 10692 10690 10688 10686 10685 10683 10680 10678 10676 10674 10672 10669 10667 10665 10663 10660 10658 10656 10653 10650 10648 10645 10642 10639 10637 10634 10630 10627 10624 10620 10617 10614 10610 10606 10603 10599 10595 10590 10586 10582 10577 10572 10568 10564 10559 10554 10548 10544 10540 10535 10531 10527 10522 10517 10510 10506 10504 10498 10492 10487 10482 10478 10473 10470 10466 10463 10459 10454 10450 10447 10443 10440 10436
10691 10692 10693 10694 10695 10696 10696 10696 10696 10695 10694 10693 10692 10691 10690 10688 10687 10685 10683 10681 10679 10677 10675 10673 10671 10669 10667 10665 10663 10661 10658 10656 10653 10650 10648 10645 10642 10639 10636 10633 10630 10627 10623 10620 10617 10613 10609 10605 10601 10596 10592 10588 10583 10579 10574 10569 10564 10560 10556 10551 10546 10541 10535 10530 10525 10521 10518 10513 10508 10500 10493 10490 10485 10480 10474 10470 10466 10462 10458 10454 10450 10446 10441 10437 10434 10430 10425 10420
10690 10691 10692 10692 10693 10693 10693 10693 10693 10692 10691 10690 10689 10688 10687 10685 10683 10682 10680 10678 10676 10674 10673 10671 10669 10667 10665 10663 10661 10658 10656 10653 10650 10648 10645 10642 10639 10636 10633 10629 10626 10623 10619 10616 10612 10608 10604 10599 10595 10590 10585 10581 10576 10571 10567 10562 10557 10552 10548 10543 10538 10533 10528 10522 10516 10511 10507 10504 10500 10493 10485 10478 10474 10469 10464 10459 10454 10450 10445 10440 10436 10432 10428 10424 10419 10414 10409 10404
10688 10689 10690 10690 10691 10691 10691 10690 10690 10689 10689 10688 10687 10685 10684 10682 10680 10679 10677 10676 10675 10673 10671 10669 10667 10665 10663 10661 10658 10656 10653 10650 10647 10644 10642 10639 10636 10633 10629 10625 10621 10618 10614 10610 10606 10602 10597 10593 10588 10583 10578 10574 10569 10564 10560 10555 10551 10546 10541 10536 10529 10524 10519 10514 10509 10503 10497 10493 10489 10485 10478 10470 10465 10460 10454 10449 10444 10439 10433 10427 10423 10418 10413 10408 10402 10396 10391 10386
10687 10687 10688 10688 10689 10689 10689 10688 10688 10687 10686 10685 10684 10682 10681 10680 10678 10677 10676 10675 10673 10671 10669 10667 10665 10663 10660 10658 10655 10652 10650 10647 10644 10641 10639 10636 10632 10629 10625 10621 10616 10612 10608 10603 10599 10595 10591 10586 10581 10576 10572 10567 10562 10557 10553 10548 10544 10539 10534 10530 10524 10517 10511 10505 10501 10496 10489 10483 10478 10475 10469 10461 10455 10450 10444 10438 10432 10427 10421 10415 10409 10404 10398 10391 10384 10379 10373 10368
10685 10686 10687 10687 10687 10687 10687 10686 10685 10684 10684 10683 10682 10680 10679 10678 10677 10676 10675 10673 10671 10669 10667 10665 10663 10660 10658 10655 10652 10650 10647 10644 10641 10638 10635 10631 10627 10624 10619 10615 10611 10606 10602 10597 10593 10588 10584 10579 10574 10570 10565 10560 10556 10551 10546 10541 10536 10532 10527 10522 10518 10512 10504 10497 10492 10487 10481 10475 10468 10465 10460 10452 10444 10438 10432 10425 10420 10414 10408 10402 10396 10389 10382 10375 10369 10363 10357 10352
10684 10685 10685 10685 10685 10685 10684 10684 10683 10682 10682 10681 10680 10679 10678 10677 10676 10674 10673 10671 10669 10667 10665 10663 10660 10658 10655 10652 10649 10647 10644 10640 10637 10634 10630 10626 10622 10618 10614 10609 10605 10600 10596 10591 10587 10582 10578 10573 10568 10564 10559 10554 10550 10545 10540 10535 10530 10525 10520 10515 10509 10505 10499 10490 10482 10477 10472 10466 10459 10454 10451 10445 10436 10429 10422 10414 10408 10402 10395 10388 10381 10373 10366 10359 10353 10347 10341 10336
10683 10683 10683 10683 10683 10683 10683 10682 10682 10681 10680 10680 10679 10678 10677 10676 10674 10673 10671 10669 10667 10665 10663 10660 10658 10655 10653 10650 10646 10643 10640 10636 10633 10629 10625 10621 10617 10613 10608 10604 10600 10595 10590 10586 10582 10577 10572 10568 10563 10558 10554 10549 10544 10539 10534 10529 10524 10519 10514 10509 10502 10497 10493 10486 10477 10469 10463 10458 10452 10445 10441 10437 10429 10420 10412 10405 10398 10391 10383 10375 10367 10359 10352 10345 10338 10332 10326 10321
10681 10682 10682 10682 10682 10682 10682 10682 10681 10680 10679 10679 10678 10677 10676 10675 10673 10672 10670 10668 10666 10663 10661 10658 10655 10652 10649 10646 10643 10639 10636 10632 10628 10624 10620 10616 10612 10607 10603 10598 10594 10590 10585 10581 10577 10572 10568 10563 10558 10553 10548 10544 10538 10533 10528 10523 10518 10513 10507 10502 10496 10490 10484 10480 10474 10464 10456 10449 10443 10436 10430 10425 10420 10412 10402 10394 10389 10381 10372 10363 10355 10347 10339 10332 10326 10320 10314 10308
10681 10681 10682 10682 10682 10682 10682 10681 10680 10680 10679 10678 10677 10676 10675 10674 10672 10670 10668 10666 10663 10661 10658 10655 10652 10649 10646 10642 10639 10635 10631 10627 10623 10619 10615 10611 10607 10602 10598 10594 10590 10586 10581 10577 10572 10567 10563 10558 10553 10548 10542 10537 10532 10527 10522 10517 10512 10507 10501 10495 10489 10483 10475 10468 10463 10456 10447 10439 10432 10426 10419 10414 10409 10401 10393 10385 10378 10370 10361 10352 10344 10337 10329 10321 10314 10308 10301 10295
10681 10682 10682 10682 10682 10682 10681 10681 10680 10679 10679 10678 10676 10675 10674 10672 10671 10669 10667 10664 10661 10658 10655 10652 10649 10645 10642 10638 10634 10630 10626 10622 10618 10614 10610 10607 10603 10599 10595 10590 10586 10582 10577 10573 10568 10563 10558 10552 10547 10542 10537 10532 10527 10522 10517 10511 10506 10500 10494 10487 10480 10474 10467 10458 10451 10445 10437 10428 10422 10414 10406 10403 10398 10389 10381 10374 10367 10360 10350 10341 10334 10325 10317 10309 10302 10295 10288 10281
10682 10682 10682 10682 10682 10682 10681 10681 10680 10679 10678 10677 10676 10674 10672 10671 10669 10667 10664 10661 10658 10655 10652 10648 10645 10641 10637 10633 10629 10625 10621 10617 10614 10610 10607 10603 10600 10595 10591 10586 10582 10577 10573 10568 10563 10557 10552 10547 10542 10537 10532 10527 10522 10517 10511 10505 10499 10493 10486 10479 10471 10464 10457 10449 10441 10434 10427 10418 10414 10406 10394 10391 10385 10374 10368 10361 10353 10349 10340 10329 10322 10312 10303 10295 10289 10283 10275 10267
10682 10683 10683 10683 10682 10682 10681 10680 10679 10678 10677 10676 10674 10673 10671 10669 10667 10664 10662 10658 10655 10652 10649 10645 10641 10637 10633 10629 10624 10621 10617 10614 10610 10607 10604 10600 10596 10592 10587 10582 10577 10572 10567 10563 10557 10552 10547 10542 10537 10532 10527 10521 10516 10510 10504 10498 10491 10484 10477 10469 10462 10455 10448 10442 10433 10426 10419 10408 10402 10396 10386 10382 10375 10359 10352 10349 10339 10335 10329 10318 10308 10299 10289 10282 10276 10270 10263 10255
10683 10683 10683 10683 10682 10682 10681 10680 10679 10678 10676 10675 10673 10671 10669 10666 10664 10661 10658 10655 10652 10648 10644 10641 10637 10633 10629 10625 10621 10618 10614 10611 10608 10605 10601 10597 10593 10589 10584 10578 10573 10567 10562 10558 10552 10547 10542 10536 10531 10525 10519 10513 10508 10502 10496 10490 10483 10476 10470 10462 10454 10448 10440 10434 10427 10418 10411 10400 10390 10384 10375 10371 10368 10352 10338 10336 10331 10323 10317 10307 10297 10287 10280 10273 10266 10259 10251 10242
10683 10683 10683 10683 10682 10681 10681 10679 10678 10677 10675 10673 10671 10669 10666 10664 10661 10658 10655 10652 10648 10644 10640 10636 10632 10629 10625 10622 10618 10615 10611 10608 10605 10601 10597 10593 10588 10584 10580 10575 10569 10563 10557 10552 10547 10541 10536 10530 10524 10518 10512 10506 10501 10495 10489 10482 10476 10469 10463 10456 10448 10441 10435 10428 10422 10413 10405 10397 10386 10378 10368 10358 10355 10349 10333 10323 10319 10313 10305 10295 10284 10274 10267 10261 10254 10245 10236 10227
10684 10684 10683 10683 10682 10681 10680 10678 10677 10675 10673 10671 10669 10667 10664 10661 10658 10655 10651 10648 10644 10640 10636 10633 10629 10626 10623 10620 10616 10614 10610 10606 10602 10598 10594 10589 10585 10580 10576 10572 10567 10561 10554 10547 10542 10536 10530 10524 10518 10511 10505 10499 10493 10487 10480 10473 10467 10461 10455 10450 10444 10437 10430 10423 10416 10409 10400 10392 10381 10373 10367 10351 10340 10340 10333 10318 10309 10301 10292 10280 10270 10260 10252 10246 10239 10230 10221 10211
10684 10684 10683 10683 10682 10680 10679 10677 10675 10673 10671 10669 10667 10664 10661 10658 10654 10651 10647 10644 10640 10637 10634 10631 10628 10625 10622 10620 10616 10613 10609 10605 10601 10596 10592 10588 10583 10577 10572 10567 10562 10556 10550 10543 10537 10530 10524 10517 10511 10504 10497 10491 10486 10479 10473 10466 10460 10454 10448 10444 10439 10432 10426 10417 10410 10404 10395 10386 10375 10367 10365 10350 10333 10330 10326 10314 10303 10293 10280 10268 10258 10249 10243 10237 10229 10219 10209 10199
10684 10684 10683 10682 10681 10679 10677 10675 10673 10671 10669 10667 10664 10661 10658 10654 10651 10647 10644 10641 10638 10635 10632 10630 10627 10625 10622 10619 10615 10611 10607 10602 10597 10592 10587 10582 10576 10571 10565 10560 10554 10548 10543 10536 10531 10525 10519 10512 10505 10499 10492 10486 10480 10473 10468 10462 10455 10449 10443 10438 10433 10427 10423 10415 10408 10403 10396 10385 10369 10357 10353 10343 10331 10325 10316 10307 10300 10289 10275 10262 10250 10241 10234 10228 10219 10208 10198 10187
10684 10683 10682 10681 10679 10677 10676 10674 10671 10669 10666 10664 10661 10658 10655 10651 10648 10645 10642 10640 10637 10635 10632 10630 10627 10624 10621 10617 10613 10608 10604 10599 10593 10588 10583 10577 10571 10566 10560 10555 10549 10543 10537 10531 10525 10520 10515 10509 10502 10497 10490 10483 10476 10468 10462 10457 10450 10443 10435 10429 10423 10416 10412 10406 10398 10393 10391 10385 10367 10349 10338 10326 10323 10323 10311 10300 10294 10282 10269 10255 10242 10233 10224 10216 10205 10192 10180 10170
10683 10682 10681 10679 10678 10676 10674 10672 10669 10667 10664 10661 10658 10655 10652 10649 10646 10644 10641 10639 10637 10635 10632 10630 10626 10623 10619 10615 10610 10605 10600 10595 10590 10585 10580 10574 10569 10563 10557 10551 10544 10538 10533 10527 10521 10515 10510 10505 10498 10493 10487 10480 10472 10464 10456 10450 10444 10437 10428 10421 10412 10403 10396 10389 10380 10373 10371 10372 10361 10343 10327 10308 10302 10307 10298 10287 10281 10270 10258 10246 10233 10224 10213 10202 10191 10178 10165 10155
10683 10681 10679 10678 10676 10674 10672 10670 10667 10665 10662 10659 10656 10653 10651 10648 10645 10643 10641 10639 10637 10635 10632 10628 10624 10620 10616 10611 10606 10601 10597 10592 10587 10581 10576 10571 10565 10559 10553 10547 10541 10535 10529 10524 10518 10512 10507 10501 10496 10490 10484 10477 10469 10459 10451 10443 10436 10429 10420 10413 10404 10394 10386 10379 10371 10361 10353 10353 10344 10330 10317 10297 10284 10287 10281 10273 10268 10258 10246 10232 10219 10211 10200 10188 10178 10166 10154 10144
10681 10680 10678 10677 10675 10673 10670 10668 10665 10662 10659 10657 10654 10652 10649 10647 10645 10643 10641 10639 10637 10634 10630 10626 10622 10618 10613 10608 10603 10598 10594 10589 10584 10579 10574 10568 10562 10556 10550 10544 10539 10533 10528 10522 10517 10511 10505 10499 10494 10488 10480 10473 10464 10455 10446 10436 10428 10420 10411 10404 10397 10387 10378 10370 10366 10359 10350 10344 10334 10319 10308 10292 10280 10278 10269 10258 10251 10243 10232 10218 10205 10196 10186 10176 10165 10153 10143 10133
10680 10679 10677 10675 10673 10671 10668 10666 10663 10660 10658 10655 10653 10651 10649 10647 10645 10643 10642 10639 10636 10632 10628 10624 10619 10615 10610 10606 10601 10597 10592 10588 10583 10577 10572 10566 10561 10555 10550 10544 10539 10534 10528 10523 10517 10510 10504 10496 10488 10482 10475 10466 10458 10450 10442 10433 10423 10415 10404 10395 10387 10380 10371 10360 10353 10349 10343 10337 10326 10314 10299 10278 10266 10264 10255 10241 10231 10224 10218 10208 10196 10185 10174 10165 10153 10141 10132 10122
10679 10678 10676 10674 10671 10669 10666 10663 10661 10659 10656 10654 10653 10651 10649 10648 10646 10644 10641 10637 10633 10630 10625 10621 10617 10613 10609 10604 10600 10596 10592 10587 10582 10576 10571 10566 10561 10556 10551 10545 10539 10533 10527 10520 10514 10507 10500 10492 10484 10477 10470 10461 10452 10443 10437 10429 10420 10411 10401 10390 10380 10372 10364 10353 10341 10331 10327 10321 10314 10310 10295 10267 10250 10247 10238 10229 10218 10207 10202 10196 10185 10174 10162 10152 10141 10129 10120 10111
10678 10676 10674 10671 10669 10666 10664 10662 10660 10658 10656 10654 10653 10652 10650 10648 10645 10642 10639 10635 10632 10628 10624 10620 10616 10612 10609 10605 10600 10596 10591 10586 10581 10577 10572 10567 10562 10556 10550 10544 10537 10530 10524 10517 10511 10504 10497 10489 10479 10471 10463 10456 10448 10439 10430 10423 10414 10406 10397 10387 10377 10366 10357 10348 10337 10325 10316 10308 10299 10298 10290 10262 10242 10237 10226 10216 10207 10192 10183 10180 10173 10162 10149 10138 10127 10116 10106 10097
10677 10675 10672 10669 10667 10665 10663 10661 10660 10658 10656 10655 10654 10652 10650 10647 10644 10640 10637 10634 10631 10627 10624 10620 10617 10613 10609 10605 10601 10596 10591 10586 10581 10576 10571 10565 10560 10553 10547 10541 10534 10527 10520 10514 10507 10500 10493 10486 10478 10468 10459 10450 10443 10434 10425 10416 10407 10398 10389 10381 10372 10363 10352 10341 10332 10321 10309 10297 10283 10280 10278 10258 10238 10232 10220 10205 10196 10181 10167 10163 10159 10149 10137 10125 10114 10104 10093 10084
10675 10673 10670 10668 10666 10664 10662 10662 10660 10659 10657 10656 10654 10652 10649 10646 10643 10640 10637 10634 10631 10628 10625 10621 10618 10614 10610 10606 10601 10596 10591 10586 10580 10575 10569 10563 10557 10551 10545 10538 10531 10525 10518 10511 10503 10496 10490 10482 10475 10466 10458 10449 10440 10431 10422 10413 10404 10394 10384 10375 10365 10356 10346 10334 10326 10317 10303 10290 10275 10266 10264 10247 10223 10214 10206 10193 10185 10172 10157 10150 10146 10139 10128 10116 10106 10096 10084 10073
10674 10671 10669 10667 10666 10664 10663 10662 10661 10659 10657 10655 10653 10650 10648 10645 10643 10640 10637 10634 10631 10628 10625 10622 10618 10614 10610 10605 10601 10595 10590 10585 10579 10573 10567 10561 10555 10549 10542 10536 10529 10522 10515 10508 10500 10492 10485 10478 10472 10464 10456 10448 10439 10429 10420 10411 10404 10394 10382 10371 10360 10348 10337 10324 10315 10309 10297 10284 10273 10264 10259 10243 10216 10198 10189 10179 10172 10161 10147 10137 10131 10128 10120 10107 10096 10087 10078 10067
10672 10670 10669 10667 10666 10665 10664 10663 10661 10659 10657 10655 10652 10650 10648 10646 10643 10640 10637 10634 10631 10628 10625 10622 10618 10614 10609 10605 10600 10595 10589 10584 10578 10572 10566 10560 10553 10547 10541 10534 10527 10520 10512 10505 10496 10488 10481 10475 10469 10463 10454 10446 10437 10428 10420 10409 10400 10392 10380 10366 10352 10339 10328 10316 10306 10299 10289 10275 10264 10258 10256 10244 10222 10203 10185 10170 10161 10152 10140 10128 10119 10115 10111 10101 10089 10078 10068 10059
10672 10670 10669 10668 10667 10666 10664 10662 10660 10658 10656 10654 10652 10650 10649 10646 10644 10640 10637 10635 10632 10628 10625 10621 10617 10613 10609 10604 10599 10594 10589 10583 10578 10571 10565 10559 10552 10546 10539 10532 10524 10517 10509 10502 10494 10485 10477 10468 10462 10457 10450 10443 10435 10425 10416 10404 10391 10380 10369 10357 10344 10332 10321 10310 10300 10293 10285 10270 10252 10241 10243 10240 10224 10206 10187 10166 10152 10143 10133 10122 10110 10102 10096 10090 10081 10071 10061 10050
10672 10671 10670 10669 10668 10666 10664 10662 10660 10658 10656 10654 10653 10651 10649 10647 10644 10641 10638 10635 10632 10628 10625 10621 10616 10613 10608 10603 10599 10594 10588 10583 10577 10571 10564 10558 10551 10544 10537 10529 10522 10514 10507 10499 10491 10482 10473 10463 10453 10446 10439 10430 10421 10410 10400 10391 10380 10369 10359 10350 10338 10326 10314 10301 10291 10284 10277 10268 10249 10228 10224 10229 10220 10204 10189 10169 10149 10135 10124 10114 10104 10094 10085 10078 10070 10062 10054 10043
10672 10671 10670 10669 10667 10665 10664 10662 10660 10658 10656 10655 10654 10652 10650 10647 10644 10641 10638 10635 10631 10628 10624 10620 10616 10612 10607 10603 10598 10593 10588 10582 10576 10569 10563 10556 10549 10542 10535 10527 10519 10512 10504 10496 10489 10480 10471 10462 10450 10440 10430 10420 10411 10401 10390 10381 10372 10362 10353 10344 10334 10322 10308 10293 10284 10278 10268 10261 10252 10229 10207 10204 10201 10191 10180 10166 10147 10129 10116 10106 10098 10090 10081 10073 10064 10055 10045 10033
10673 10672 10670 10669 10667 10665 10664 10662 10660 10659 10658 10656 10654 10652 10650 10647 10644 10641 10638 10635 10632 10628 10624 10620 10616 10612 10607 10602 10597 10592 10586 10581 10574 10568 10561 10554 10547 10540 10533 10525 10517 10510 10502 10494 10487 10478 10469 10460 10450 10438 10427 10417 10408 10399 10388 10377 10369 10359 10349 10341 10331 10319 10306 10289 10277 10270 10260 10249 10245 10234 10211 10193 10186 10177 10166 10155 10141 10126 10113 10101 10089 10080 10071 10062 10054 10045 10034 10022
10673 10672 10671 10669 10668 10666 10664 10663 10661 10660 10658 10657 10655 10652 10650 10647 10644 10641 10639 10635 10632 10628 10624 10620 10616 10611 10606 10601 10596 10590 10585 10578 10572 10566 10559 10552 10546 10538 10531 10524 10516 10508 10501 10492 10484 10477 10467 10458 10449 10438 10426 10416 10406 10396 10386 10375 10365 10356 10346 10336 10326 10315 10306 10290 10272 10262 10252 10237 10227 10220 10206 10187 10173 10164 10153 10142 10132 10119 10105 10090 10076 10066 10058 10050 10043 10036 10027 10017
10674 10673 10671 10670 10668 10666 10665 10663 10662 10661 10659 10657 10655 10653 10650 10648 10645 10642 10639 10636 10632 10629 10625 10620 10616 10611 10606 10601 10595 10589 10583 10577 10571 10564 10558 10551 10544 10537 10530 10522 10515 10507 10499 10491 10482 10474 10465 10456 10447 10437 10426 10415 10404 10394 10385 10375 10364 10353 10341 10330 10320 10311 10300 10285 10268 10256 10245 10229 10212 10201 10192 10180 10166 10154 10144 10132 10120 10108 10095 10083 10070 10058 10049 10043 10036 10029 10023 10016
10674 10673 10672 10671 10669 10667 10665 10664 10663 10661 10660 10658 10656 10653 10651 10648 10646 10642 10640 10636 10633 10629 10625 10621 10616 10611 10606 10600 10595 10589 10583 10576 10570 10563 10557 10550 10543 10536 10528 10520 10513 10505 10496 10488 10479 10471 10462 10452 10443 10433 10422 10413 10404 10393 10382 10371 10359 10347 10336 10326 10315 10304 10291 10275 10260 10250 10242 10230 10214 10196 10184 10174 10161 10148 10137 10123 10109 10096 10088 10082 10073 10060 10049 10040 10033 10026 10019 10010
10675 10674 10673 10671 10670 10668 10667 10665 10664 10662 10661 10659 10656 10654 10651 10649 10646 10643 10640 10637 10634 10630 10625 10621 10616 10611 10606 10600 10594 10588 10582 10575 10569 10562 10556 10549 10541 10534 10526 10518 10510 10502 10494 10485 10476 10467 10458 10449 10440 10431 10419 10408 10397 10388 10378 10366 10355 10344 10334 10323 10310 10296 10285 10268 10250 10237 10227 10217 10208 10195 10178 10163 10150 10140 10133 10122 10108 10095 10085 10079 10072 10061 10047 10033 10024 10019 10012 10003
10676 10674 10673 10672 10671 10669 10668 10666 10665 10663 10661 10659 10657 10655 10652 10649 10647 10644 10641 10637 10634 10630 10626 10621 10617 10611 10606 10600 10594 10588 10582 10575 10569 10562 10554 10547 10539 10531 10524 10516 10507 10499 10491 10482 10473 10464 10454 10445 10436 10427 10418 10406 10393 10381 10371 10362 10352 10341 10328 10315 10301 10290 10280 10266 10247 10233 10219 10204 10192 10181 10167 10154 10145 10136 10131 10125 10113 10097 10081 10069 10059 10051 10043 10032 10020 10012 10007 10000